Weather in Zalivsky

Russia / Volgograd Oblast     47°58′43″N   43°27′33″E
temp.,
°C
wind,
m/s
gust,
m/s
humid.,
%
clouds,
%
prec.,
mm/h
press.,
hPa
HPBL,
m
5 august, thu
thu500:00+25ne3750100 0.0 1015163
03:00+24ne495578 0.0 1015265
06:00+23ene385625 0.0 1016322
09:00+28ene4539100 0.0 1016893
12:00+30ene323296 0.0 10161993
15:00+32ne332611 0.0 10142826
18:00+31n5426100 0.0 10141550
21:00+27ene4732100 0.0 1014143
6 august, fri
fri600:00+25e4930100 0.0 1014203
03:00+24ese511315 0.0 1013239
06:00+24e5113360 0.0 1014285
09:00+30ese89240 0.0 10141007
12:00+33ese66195 0.0 10132000
15:00+35ese66165 0.0 10112182
18:00+34e66160 0.0 10102016
21:00+28e410220 0.0 1010166
7 august, sat
sat700:00+27e715245 0.0 1010377
03:00+26e716263 0.0 1010441
06:00+25e81626100 0.0 1010513
09:00+31ese9121894 0.0 1010877
12:00+35ese81015100 0.0 10091744
15:00+37ese8914100 0.0 10082459
18:00+36e791622 0.0 10071432
21:00+32e715206 0.0 1008397
8 august, sun
sun800:00+29ese6132214 0.0 1009271
03:00+28ese51328100 0.0 1009326
06:00+26e41031100 0.0 1009285
09:00+32se4522100 0.0 1010672
12:00+35e3419100 0.0 10091396
15:00+38ese571585 0.0 10072149
18:00+35wnw66206 0.0 1007471
21:00+28w510302 0.0 1007176
9 august, mon
mon900:00+27w343424 0.0 100762
03:00+25wsw51148100 0.0 1008269
06:00+25wsw51155100 0.0 1008351
09:00+30wsw7103595 0.0 1009738
12:00+34wsw8102531 0.0 10091544
15:00+35wsw892148 0.0 10091975
18:00+34w6623100 0.0 10081611
21:00+28wsw49354 0.0 1009171